Location: Unspecified
(60.3052°N, 5.3304°E)
Time: 03:09:57
(UTC+02:00)

ISS - Pass Details

Date: 27 September 2021
Orbit: 417 x 423 km, 51.6° (Epoch: 22 October)

Event Time Altitude Azimuth Distance (km) Brightness Sun altitude
Rises 21:45:31 0° 259° (W) 2,368 0.9 -17.9°
Reaches altitude 10° 21:48:21 10° 233° (SW) 1,503 -0.7 -18.2°
Maximum altitude 21:50:11 14° 200° (SSW) 1,283 -1.4 -18.4°
Enters shadow 21:50:11 14° 200° (SSW) 1,283 -1.4 -18.4°
